| time (UTC) | temp C | wind direction | speed KPH | gust KPH | rain 1hr cm | rain 24hr cm | rain mn cm | humidity % | barometer mb |
| 20260504175505 | 21 | 232 | 11.3 | 30.6 | 0.00 | 0.00 | 0.00 | 32 | 1011.7 |
| 20260504175005 | 21 | 239 | 12.9 | 30.6 | 0.00 | 0.00 | 0.00 | 33 | 1011.8 |
| 20260504174505 | 21 | 242 | 11.3 | 29.0 | 0.00 | 0.00 | 0.00 | 34 | 1012.0 |
| 20260504174005 | 21 | 236 | 9.7 | 29.0 | 0.00 | 0.00 | 0.00 | 32 | 1011.9 |
| 20260504173505 | 21 | 240 | 11.3 | 35.4 | 0.00 | 0.00 | 0.00 | 32 | 1012.0 |
| 20260504173005 | 21 | 244 | 9.7 | 35.4 | 0.00 | 0.00 | 0.00 | 34 | 1012.0 |
| 20260504172506 | 21 | 238 | 9.7 | 33.8 | 0.00 | 0.00 | 0.00 | 37 | 1012.1 |
| 20260504172006 | 21 | 236 | 11.3 | 33.8 | 0.00 | 0.00 | 0.00 | 35 | 1012.1 |
| 20260504170505 | 20 | 225 | 12.9 | 27.4 | 0.00 | 0.00 | 0.00 | 35 | 1012.4 |
| 20260504151006 | 18 | 246 | 11.3 | 27.4 | 0.00 | 0.00 | 0.00 | 45 | 1013.5 |
| 20260504141005 | 17 | 230 | 8.0 | 17.7 | 0.00 | 0.00 | 0.00 | 51 | 1013.8 |
| 20260504140506 | 17 | 240 | 9.7 | 22.5 | 0.00 | 0.00 | 0.00 | 54 | 1013.7 |
| 20260504110505 | 10 | 225 | 6.4 | 16.1 | 0.00 | 0.00 | 0.00 | 73 | 1015.1 |
| 20260504100507 | 9 | 219 | 4.8 | 14.5 | 0.00 | 0.00 | 0.00 | 70 | 1015.1 |
| 20260504082005 | 7 | 218 | 1.6 | 6.4 | 0.00 | 0.00 | 0.00 | 66 | 1014.9 |
| 20260504081006 | 7 | 224 | 3.2 | 11.3 | 0.00 | 0.00 | 0.00 | 66 | 1014.9 |
| 20260504080505 | 7 | 233 | 3.2 | 9.7 | 0.00 | 0.00 | 0.00 | 65 | 1014.8 |
| 20260504050505 | 7 | 232 | 0.0 | 4.8 | 0.00 | 0.00 | 0.00 | 61 | 1014.3 |
| 20260504050005 | 8 | 229 | 1.6 | 6.4 | 0.00 | 0.00 | 0.00 | 60 | 1014.4 |
| 20260504045505 | 8 | 228 | 1.6 | 6.4 | 0.00 | 0.00 | 0.00 | 58 | 1014.4 |
| 20260504045006 | 8 | 229 | 1.6 | 8.0 | 0.00 | 0.00 | 0.00 | 58 | 1014.4 |
| 20260504044505 | 8 | 231 | 1.6 | 8.0 | 0.00 | 0.00 | 0.00 | 57 | 1014.3 |
| 20260504044006 | 8 | 220 | 1.6 | 6.4 | 0.00 | 0.00 | 0.00 | 58 | 1014.4 |
| 20260504043505 | 8 | 212 | 0.0 | 4.8 | 0.00 | 0.00 | 0.00 | 57 | 1014.2 |
| 20260504043005 | 8 | 200 | 0.0 | 4.8 | 0.00 | 0.00 | 0.00 | 57 | 1014.2 |
| 20260504042505 | 8 | 214 | 1.6 | 6.4 | 0.00 | 0.00 | 0.00 | 57 | 1014.2 |
| 20260504042006 | 9 | 225 | 1.6 | 6.4 | 0.00 | 0.00 | 0.00 | 56 | 1014.1 |
| 20260504041505 | 8 | 232 | 1.6 | 4.8 | 0.00 | 0.00 | 0.00 | 56 | 1014.0 |
| 20260504041006 | 8 | 220 | 1.6 | 6.4 | 0.00 | 0.00 | 0.00 | 56 | 1014.0 |
| 20260504040506 | 9 | 211 | 0.0 | 6.4 | 0.00 | 0.00 | 0.00 | 55 | 1014.0 |
| 20260504040010 | 9 | 209 | 0.0 | 3.2 | 0.00 | 0.00 | 0.00 | 55 | 1014.0 |
| 20260504035505 | 9 | 223 | 1.6 | 6.4 | 0.00 | 0.00 | 0.00 | 54 | 1013.9 |
| 20260504035006 | 10 | 227 | 1.6 | 8.0 | 0.00 | 0.00 | 0.00 | 52 | 1013.9 |
| 20260504034505 | 10 | 228 | 1.6 | 9.7 | 0.00 | 0.00 | 0.00 | 51 | 1013.8 |
| 20260504033505 | 10 | 219 | 1.6 | 8.0 | 0.00 | 0.00 | 0.00 | 52 | 1013.8 |
| 20260504033005 | 10 | 227 | 3.2 | 8.0 | 0.00 | 0.00 | 0.00 | 52 | 1013.7 |
| 20260504032505 | 10 | 237 | 1.6 | 8.0 | 0.00 | 0.00 | 0.00 | 50 | 1013.6 |
| 20260504032005 | 10 | 237 | 1.6 | 8.0 | 0.00 | 0.00 | 0.00 | 50 | 1013.6 |
| 20260504031507 | 10 | 235 | 1.6 | 8.0 | 0.00 | 0.00 | 0.00 | 51 | 1013.6 |
| 20260504031007 | 10 | 234 | 1.6 | 8.0 | 0.00 | 0.00 | 0.00 | 51 | 1013.6 |
| 20260504030505 | 10 | 231 | 1.6 | 6.4 | 0.00 | 0.00 | 0.00 | 51 | 1013.7 |
| 20260504030005 | 10 | 231 | 1.6 | 6.4 | 0.00 | 0.00 | 0.00 | 51 | 1013.7 |
| 20260504025005 | 10 | 236 | 1.6 | 6.4 | 0.00 | 0.00 | 0.00 | 52 | 1013.7 |
| 20260504024506 | 10 | 228 | 1.6 | 6.4 | 0.00 | 0.00 | 0.00 | 53 | 1013.7 |
| 20260504024006 | 9 | 213 | 1.6 | 6.4 | 0.00 | 0.00 | 0.00 | 56 | 1013.7 |
| 20260504022505 | 9 | 248 | 0.0 | 1.6 | 0.00 | 0.00 | 0.00 | 58 | 1013.7 |
| 20260504022006 | 10 | 237 | 0.0 | 1.6 | 0.00 | 0.00 | 0.00 | 56 | 1013.7 |
| 20260504021507 | 10 | 258 | 0.0 | 1.6 | 0.00 | 0.00 | 0.00 | 54 | 1013.7 |
| 20260504021006 | 10 | 217 | 0.0 | 4.8 | 0.00 | 0.00 | 0.00 | 51 | 1013.7 |
| 20260504020505 | 10 | 217 | 0.0 | 4.8 | 0.00 | 0.00 | 0.00 | 50 | 1013.6 |
| 20260504015506 | 10 | 248 | 1.6 | 6.4 | 0.00 | 0.00 | 0.00 | 48 | 1013.5 |
| 20260504015005 | 10 | 246 | 1.6 | 6.4 | 0.00 | 0.00 | 0.00 | 48 | 1013.6 |
| 20260504014506 | 10 | 233 | 1.6 | 4.8 | 0.00 | 0.00 | 0.00 | 48 | 1013.5 |
| 20260504013006 | 11 | 233 | 1.6 | 6.4 | 0.00 | 0.00 | 0.00 | 45 | 1013.4 |
| 20260504012007 | 12 | 250 | 1.6 | 8.0 | 0.00 | 0.00 | 0.00 | 42 | 1013.3 |
| 20260504011506 | 12 | 255 | 1.6 | 8.0 | 0.00 | 0.00 | 0.00 | 41 | 1013.2 |
| 20260504011005 | 12 | 250 | 1.6 | 8.0 | 0.00 | 0.00 | 0.00 | 42 | 1013.2 |
| 20260504010505 | 12 | 248 | 3.2 | 8.0 | 0.00 | 0.00 | 0.00 | 41 | 1013.1 |
| 20260504010007 | 12 | 247 | 1.6 | 8.0 | 0.00 | 0.00 | 0.00 | 41 | 1013.0 |
| 20260504005506 | 12 | 246 | 1.6 | 4.8 | 0.00 | 0.00 | 0.00 | 42 | 1012.9 |
| 20260504004505 | 12 | 250 | 1.6 | 6.4 | 0.00 | 0.00 | 0.00 | 41 | 1012.8 |
| 20260504004006 | 12 | 244 | 1.6 | 6.4 | 0.00 | 0.00 | 0.00 | 39 | 1012.7 |
| 20260504003006 | 12 | 241 | 1.6 | 6.4 | 0.00 | 0.00 | 0.00 | 38 | 1012.6 |
| 20260504002506 | 13 | 249 | 1.6 | 8.0 | 0.00 | 0.00 | 0.00 | 37 | 1012.5 |
| 20260504001506 | 13 | 249 | 3.2 | 11.3 | 0.00 | 0.00 | 0.00 | 36 | 1012.4 |
| 20260504001006 | 13 | 264 | 3.2 | 8.0 | 0.00 | 0.00 | 0.00 | 35 | 1012.4 |
| 20260504000506 | 13 | 268 | 3.2 | 11.3 | 0.00 | 0.00 | 0.00 | 34 | 1012.5 |
| 20260504000006 | 14 | 257 | 4.8 | 14.5 | 0.00 | 0.00 | 0.00 | 33 | 1012.4 |
| 20260503235506 | 14 | 257 | 4.8 | 14.5 | 0.00 | 0.00 | 0.00 | 33 | 1012.3 |
| 20260503235006 | 14 | 266 | 3.2 | 12.9 | 0.00 | 0.00 | 0.00 | 34 | 1012.3 |
| 20260503233506 | 15 | 270 | 4.8 | 19.3 | 0.00 | 0.00 | 0.00 | 32 | 1012.1 |
| 20260503233006 | 14 | 270 | 3.2 | 16.1 | 0.00 | 0.00 | 0.00 | 33 | 1012.0 |
| 20260503232006 | 15 | 301 | 3.2 | 20.9 | 0.00 | 0.00 | 0.00 | 31 | 1011.9 |
| 20260503231006 | 15 | 288 | 3.2 | 16.1 | 0.00 | 0.00 | 0.00 | 32 | 1011.8 |
| 20260503230506 | 15 | 283 | 3.2 | 20.9 | 0.00 | 0.00 | 0.00 | 30 | 1011.8 |
| 20260503230007 | 15 | 273 | 4.8 | 20.9 | 0.00 | 0.00 | 0.00 | 31 | 1011.8 |
| 20260503225507 | 15 | 277 | 8.0 | 25.7 | 0.00 | 0.00 | 0.00 | 30 | 1011.8 |
| 20260503224505 | 15 | 290 | 4.8 | 17.7 | 0.00 | 0.00 | 0.00 | 30 | 1011.8 |
| 20260503223506 | 15 | 321 | 4.8 | 17.7 | 0.00 | 0.00 | 0.00 | 30 | 1011.8 |
| 20260503223006 | 15 | 319 | 6.4 | 17.7 | 0.00 | 0.00 | 0.00 | 29 | 1011.7 |
| 20260503222505 | 15 | 316 | 4.8 | 12.9 | 0.00 | 0.00 | 0.00 | 30 | 1011.7 |
| 20260503222006 | 15 | 308 | 4.8 | 14.5 | 0.00 | 0.00 | 0.00 | 30 | 1011.7 |
| 20260503221506 | 15 | 301 | 4.8 | 14.5 | 0.00 | 0.00 | 0.00 | 30 | 1011.7 |
| 20260503221010 | 15 | 294 | 4.8 | 16.1 | 0.00 | 0.00 | 0.00 | 30 | 1011.7 |
| 20260503220505 | 15 | 279 | 6.4 | 17.7 | 0.00 | 0.00 | 0.00 | 29 | 1011.7 |
| 20260503220006 | 15 | 280 | 4.8 | 17.7 | 0.00 | 0.00 | 0.00 | 30 | 1011.7 |
| 20260503215506 | 15 | 293 | 4.8 | 14.5 | 0.00 | 0.00 | 0.00 | 30 | 1011.8 |
| 20260503215006 | 15 | 281 | 4.8 | 22.5 | 0.00 | 0.00 | 0.00 | 32 | 1011.8 |
| 20260503214506 | 15 | 287 | 6.4 | 22.5 | 0.00 | 0.00 | 0.00 | 30 | 1011.8 |
| 20260503214006 | 15 | 295 | 6.4 | 16.1 | 0.00 | 0.00 | 0.00 | 31 | 1011.7 |
| 20260503213508 | 15 | 291 | 6.4 | 19.3 | 0.00 | 0.00 | 0.00 | 30 | 1011.8 |
| 20260503213007 | 15 | 289 | 6.4 | 19.3 | 0.00 | 0.00 | 0.00 | 29 | 1011.9 |
| 20260503212005 | 15 | 304 | 6.4 | 19.3 | 0.00 | 0.00 | 0.00 | 30 | 1011.7 |
| 20260503211506 | 15 | 306 | 6.4 | 20.9 | 0.00 | 0.00 | 0.00 | 29 | 1011.8 |
| 20260503211006 | 15 | 310 | 8.0 | 20.9 | 0.00 | 0.00 | 0.00 | 30 | 1011.8 |
| 20260503210506 | 15 | 310 | 6.4 | 19.3 | 0.00 | 0.00 | 0.00 | 30 | 1011.8 |
| 20260503205505 | 15 | 282 | 8.0 | 30.6 | 0.00 | 0.00 | 0.00 | 31 | 1011.8 |
| 20260503205005 | 15 | 297 | 6.4 | 30.6 | 0.00 | 0.00 | 0.00 | 30 | 1011.9 |
| 20260503204506 | 15 | 306 | 6.4 | 16.1 | 0.00 | 0.00 | 0.00 | 33 | 1012.0 |
| 20260503203506 | 15 | 292 | 6.4 | 25.7 | 0.00 | 0.00 | 0.00 | 32 | 1012.0 |
| 20260503203006 | 15 | 284 | 4.8 | 16.1 | 0.00 | 0.00 | 0.00 | 33 | 1012.0 |
| 20260503202506 | 15 | 296 | 4.8 | 16.1 | 0.00 | 0.00 | 0.00 | 34 | 1012.0 |
| 20260503202006 | 15 | 285 | 8.0 | 29.0 | 0.00 | 0.00 | 0.00 | 33 | 1012.0 |
| 20260503201506 | 16 | 274 | 8.0 | 29.0 | 0.00 | 0.00 | 0.00 | 31 | 1012.1 |
| 20260503201005 | 16 | 279 | 6.4 | 25.7 | 0.00 | 0.00 | 0.00 | 32 | 1012.1 |
| 20260503200505 | 15 | 299 | 6.4 | 24.1 | 0.00 | 0.00 | 0.00 | 31 | 1012.0 |
| 20260503200006 | 15 | 316 | 8.0 | 25.7 | 0.00 | 0.00 | 0.00 | 31 | 1012.0 |
| 20260503195006 | 15 | 295 | 8.0 | 27.4 | 0.00 | 0.00 | 0.00 | 31 | 1012.1 |
| 20260503194506 | 15 | 276 | 8.0 | 17.7 | 0.00 | 0.00 | 0.00 | 33 | 1012.1 |
| 20260503194006 | 15 | 292 | 8.0 | 17.7 | 0.00 | 0.00 | 0.00 | 32 | 1012.2 |
| 20260503193006 | 15 | 296 | 8.0 | 22.5 | 0.00 | 0.00 | 0.00 | 31 | 1012.2 |
| 20260503192006 | 15 | 289 | 9.7 | 27.4 | 0.00 | 0.00 | 0.00 | 33 | 1012.4 |
| 20260503191506 | 15 | 277 | 6.4 | 27.4 | 0.00 | 0.00 | 0.00 | 32 | 1012.3 |
| 20260503191006 | 15 | 290 | 6.4 | 17.7 | 0.00 | 0.00 | 0.00 | 35 | 1012.4 |
| 20260503190006 | 15 | 297 | 6.4 | 29.0 | 0.00 | 0.00 | 0.00 | 32 | 1012.6 |
| 20260503185006 | 14 | 313 | 9.7 | 22.5 | 0.00 | 0.00 | 0.00 | 33 | 1012.6 |
| 20260503184506 | 13 | 315 | 9.7 | 27.4 | 0.00 | 0.00 | 0.00 | 33 | 1012.7 |
| 20260503184006 | 14 | 315 | 8.0 | 27.4 | 0.00 | 0.00 | 0.00 | 33 | 1012.7 |
| 20260503183505 | 14 | 307 | 6.4 | 17.7 | 0.00 | 0.00 | 0.00 | 33 | 1012.7 |
| 20260503183006 | 14 | 311 | 6.4 | 17.7 | 0.00 | 0.00 | 0.00 | 36 | 1012.8 |
| 20260503182507 | 13 | 315 | 6.4 | 17.7 | 0.00 | 0.00 | 0.00 | 34 | 1012.8 |
| 20260503182006 | 14 | 306 | 6.4 | 20.9 | 0.00 | 0.00 | 0.00 | 34 | 1012.9 |
| 20260503181506 | 14 | 288 | 6.4 | 22.5 | 0.00 | 0.00 | 0.00 | 33 | 1012.9 |
| 20260503180006 | 13 | 330 | 4.8 | 17.7 | 0.00 | 0.00 | 0.00 | 37 | 1013.1 |